Flag for Estonia Weather past 2 weeks in Tallinn, Estonia

Now
46 °F

Partly sunny.


Feels Like: 42 °F
Forecast: 48 / 64 °F
Wind: 9 mph from Southwest

Location: Tallinn

Current Time: May 25, 2015 at 8:34:43 AM

Latest Report: May 25, 2015 at 7:50 AM


Visibility: N/A

Pressure: 29.95 "Hg

Humidity: 87%

Dew point: 43 °F

Location of TallinnLocation

Historic Weather in Tallinn — Graph

°F

Tallinn temperature yesterday

Maximum temperature yesterday: 63 °F (at 12:50 PM)
Minimum temperature yesterday: 41 °F (at 1:20 AM)
Average temperature yesterday: 52 °F

Past Weeks' High & Low Weather Summary

 TemperatureHumidityPressure
High66 °F (May 12, 1:50 PM)100% (May 11, 1:20 AM)30.24 "Hg (May 11, 1:20 AM)
Low32 °F (May 16, 3:50 AM)30% (May 24, 3:50 PM)29.42 "Hg (May 13, 4:50 AM)
Average49 °F75%29.83 "Hg
* Reported May 10 7:20 AM — May 25 7:20 AM, Tallinn, Weather by CustomWeather, © 2015

Note: Actual official high and low records may vary slightly from our data, if they occured in-between our weather recording intervals... More about our weather records

Advertising

Tallinn weather history for previous 24 hours

 ConditionsComfort  
Time TempWeatherWind HumidityBarometerVisibility
7:20 AM
Mon, May 25
45 °FLow clouds.12 mph93%29.95 "HgN/A
6:50 AM45 °FMore clouds than sun.13 mph93%29.95 "HgN/A
6:20 AM43 °FPartly sunny.8 mph93%29.95 "HgN/A
5:50 AM41 °FPassing clouds.6 mph100%29.95 "HgN/A
5:20 AM41 °FPassing clouds.7 mph100%29.95 "HgN/A
4:50 AM43 °FPassing clouds.7 mph93%29.95 "HgN/A
4:20 AM43 °FPassing clouds.7 mph93%29.95 "HgN/A
3:50 AM43 °FPassing clouds.7 mph93%29.95 "HgN/A
3:20 AM45 °FPassing clouds.7 mph87%29.95 "HgN/A
2:50 AM45 °FClear.6 mph87%29.95 "Hg10 mi
2:20 AM45 °FClear.5 mph93%29.95 "Hg10 mi
1:50 AM45 °FClear.2 mph87%29.95 "Hg10 mi
1:20 AM46 °FClear.2 mph87%29.95 "Hg10 mi
12:20 AM48 °FClear.6 mph82%29.95 "Hg10 mi
11:50 PM
Sun, May 24
48 °FClear.6 mph82%29.95 "Hg10 mi
11:20 PM48 °FClear.6 mph82%29.95 "Hg10 mi
10:50 PM50 °FSunny.6 mph71%29.95 "Hg10 mi
10:20 PM50 °FPassing clouds.5 mph71%29.95 "HgN/A
9:50 PM52 °FSunny.5 mph67%29.95 "Hg10 mi
9:20 PM52 °FSunny.6 mph67%29.95 "Hg10 mi
8:50 PM52 °FSunny.6 mph72%29.95 "Hg10 mi
8:20 PM54 °FSunny.7 mph63%29.95 "Hg10 mi
7:50 PM54 °FPassing clouds.8 mph67%29.95 "HgN/A
7:20 PM55 °FSunny.9 mph63%29.95 "Hg10 mi
6:50 PM55 °FPassing clouds.8 mph63%29.95 "HgN/A
6:20 PM55 °FSunny.10 mph59%29.95 "Hg10 mi
5:50 PM55 °FSunny.14 mph63%29.95 "Hg10 mi
5:20 PM55 °FSunny.14 mph59%29.95 "Hg10 mi
4:50 PM59 °FPassing clouds.16 mph51%29.95 "HgN/A
4:20 PM61 °FPassing clouds.15 mph42%29.95 "HgN/A
3:50 PM63 °FSunny.21 mph30%29.92 "Hg10 mi
3:20 PM63 °FSunny.18 mph32%29.95 "Hg10 mi
2:50 PM63 °FSunny.22 mph34%29.92 "Hg10 mi
2:20 PM63 °FSunny.21 mph32%29.92 "Hg10 mi
1:50 PM61 °FSunny.18 mph34%29.92 "Hg10 mi
1:20 PM63 °FSunny.21 mph34%29.92 "Hg10 mi
12:50 PM63 °FSunny.20 mph32%29.92 "Hg10 mi
12:20 PM61 °FSunny.17 mph31%29.92 "Hg10 mi
11:50 AM61 °FSunny.18 mph31%29.92 "Hg10 mi
11:20 AM61 °FSunny.17 mph36%29.92 "Hg10 mi
10:50 AM59 °FPassing clouds.18 mph39%29.92 "HgN/A
10:20 AM59 °FPassing clouds.17 mph42%29.92 "HgN/A
9:50 AM57 °FPassing clouds.16 mph48%29.92 "HgN/A
9:20 AM55 °FSunny.15 mph59%29.92 "Hg10 mi
8:50 AM55 °FSunny.13 mph59%29.92 "Hg10 mi
8:20 AM54 °FPassing clouds.12 mph67%29.92 "HgN/A
Weather by CustomWeather, © 2015

See weather overviewHow to use our weather pages